• în Republica Moldova
  • Lista ţărilor
  • Pe 7 zile
  • Temperatura apei
  • Hartă satelitară
  • Meteo pe hartă
  • Widget-uri
  • user-avatar
    Intrare

    Meteo pe oră la Ganja

    Astăzi, 18 Ianuarie, Miercuri

    Timp Temperatura Precipitaţii Vânt Presiune Umiditate
    00:00 +2°C° 0 mm 1 m/s 730 mmHg 82%
    01:00 +2°C° 0 mm 1 m/s 730 mmHg 84%
    02:00 +1°C° 0 mm 1 m/s 730 mmHg 85%
    03:00 +1°C° 0 mm 1 m/s 730 mmHg 86%
    04:00 +1°C° 0 mm 1 m/s 730 mmHg 87%
    05:00 +1°C° 0 mm 1 m/s 730 mmHg 88%
    06:00 0°C° 0 mm 1 m/s 730 mmHg 89%
    07:00 +2°C° 0 mm 1 m/s 730 mmHg 86%
    08:00 +3°C° 0 mm 1 m/s 730 mmHg 84%
    09:00 +5°C° 0 mm 1 m/s 731 mmHg 79%
    10:00 +6°C° 0 mm 1 m/s 731 mmHg 77%
    11:00 +5°C° 0 mm 2 m/s 730 mmHg 74%
    12:00 +6°C° 0 mm 2 m/s 730 mmHg 72%
    13:00 +6°C° 0 mm 2 m/s 730 mmHg 72%
    14:00 +6°C° 0 mm 2 m/s 730 mmHg 73%
    15:00 +6°C° 0 mm 2 m/s 729 mmHg 73%
    16:00 +5°C° 0 mm 2 m/s 729 mmHg 80%
    17:00 +5°C° 0 mm 1 m/s 730 mmHg 87%
    18:00 +3°C° 0 mm 1 m/s 730 mmHg 93%
    19:00 +3°C° 0 mm 1 m/s 730 mmHg 94%
    20:00 +3°C° 0 mm 1 m/s 730 mmHg 95%
    21:00 +1°C° 0 mm 0 m/s 730 mmHg 96%
    22:00 +1°C° 0 mm 0 m/s 730 mmHg 97%
    23:00 +1°C° 0 mm 0 m/s 730 mmHg 97%

    Mâine, 19 Ianuarie, Joi

    Timp Temperatura Precipitaţii Vânt Presiune Umiditate
    00:00 +1°C° 0 mm 0 m/s 730 mmHg 98%
    01:00 +1°C° 0 mm 0 m/s 730 mmHg 98%
    02:00 +1°C° 0 mm 0 m/s 730 mmHg 98%
    03:00 +1°C° 0 mm 0 m/s 729 mmHg 98%
    04:00 +1°C° 0 mm 0 m/s 729 mmHg 97%
    05:00 +2°C° 0 mm 1 m/s 729 mmHg 97%
    06:00 +1°C° 0 mm 1 m/s 729 mmHg 96%
    07:00 +2°C° 0 mm 1 m/s 729 mmHg 93%
    08:00 +3°C° 0 mm 1 m/s 730 mmHg 90%
    09:00 +4°C° 0 mm 1 m/s 730 mmHg 87%
    10:00 +5°C° 0 mm 1 m/s 730 mmHg 82%
    11:00 +6°C° 0 mm 1 m/s 730 mmHg 77%
    12:00 +7°C° 0 mm 1 m/s 729 mmHg 72%
    13:00 +7°C° 0,1 mm 1 m/s 729 mmHg 71%
    14:00 +7°C° 0,1 mm 1 m/s 729 mmHg 71%
    15:00 +7°C° 0,1 mm 1 m/s 729 mmHg 70%
    16:00 +6°C° 0,1 mm 1 m/s 729 mmHg 75%
    17:00 +4°C° 0,1 mm 1 m/s 729 mmHg 79%
    18:00 +2°C° 0,1 mm 0 m/s 730 mmHg 84%
    19:00 +3°C° 0 mm 1 m/s 730 mmHg 86%
    20:00 +3°C° 0 mm 1 m/s 730 mmHg 87%
    21:00 +2°C° 0 mm 1 m/s 730 mmHg 88%
    22:00 +2°C° 0,1 mm 1 m/s 730 mmHg 90%
    23:00 +2°C° 0,1 mm 1 m/s 730 mmHg 91%

    Poimâine, 20 Ianuarie, Vineri

    Timp Temperatura Precipitaţii Vânt Presiune Umiditate
    00:00 +2°C° 0,1 mm 1 m/s 730 mmHg 92%
    01:00 +2°C° 0,1 mm 1 m/s 730 mmHg 93%
    02:00 +1°C° 0,1 mm 1 m/s 731 mmHg 94%
    03:00 0°C° 0,1 mm 0 m/s 731 mmHg 95%
    04:00 0°C° 0,1 mm 0 m/s 731 mmHg 96%
    05:00 0°C° 0,1 mm 0 m/s 731 mmHg 96%
    06:00 0°C° 0,1 mm 0 m/s 731 mmHg 97%
    07:00 +1°C° 0,1 mm 0 m/s 731 mmHg 95%
    08:00 +3°C° 0,1 mm 1 m/s 731 mmHg 94%
    09:00 +3°C° 0,1 mm 1 m/s 731 mmHg 92%
    10:00 +4°C° 0,1 mm 1 m/s 731 mmHg 87%
    11:00 +5°C° 0,1 mm 1 m/s 731 mmHg 82%
    12:00 +5°C° 0,1 mm 1 m/s 731 mmHg 77%
    13:00 +5°C° 0,1 mm 1 m/s 731 mmHg 75%
    14:00 +5°C° 0,1 mm 1 m/s 730 mmHg 74%
    15:00 +5°C° 0,1 mm 1 m/s 730 mmHg 73%
    16:00 +4°C° 0 mm 1 m/s 730 mmHg 78%
    17:00 +3°C° 0 mm 1 m/s 730 mmHg 82%
    18:00 +1°C° 0 mm 0 m/s 731 mmHg 87%
    19:00 0°C° 0 mm 0 m/s 731 mmHg 88%
    20:00 0°C° 0 mm 0 m/s 731 mmHg 89%
    21:00 -1°C° 0 mm 0 m/s 731 mmHg 90%
    22:00 -1°C° 0 mm 0 m/s 731 mmHg 90%
    23:00 -1°C° 0 mm 0 m/s 731 mmHg 91%

    21 Ianuarie, Sâmbătă

    Timp Temperatura Precipitaţii Vânt Presiune Umiditate
    00:00 -1°C° 0 mm 0 m/s 731 mmHg 91%
    01:00 -2°C° 0 mm 0 m/s 731 mmHg 91%
    02:00 -1°C° 0 mm 1 m/s 730 mmHg 90%
    03:00 -1°C° 0 mm 1 m/s 730 mmHg 89%
    04:00 -1°C° 0 mm 1 m/s 730 mmHg 88%
    05:00 -2°C° 0 mm 1 m/s 730 mmHg 87%
    06:00 -4°C° 0 mm 2 m/s 730 mmHg 87%
    07:00 -2°C° 0 mm 2 m/s 730 mmHg 82%
    08:00 +1°C° 0 mm 1 m/s 731 mmHg 76%
    09:00 +3°C° 0 mm 1 m/s 731 mmHg 71%
    10:00 +3°C° 0 mm 2 m/s 731 mmHg 67%
    11:00 +4°C° 0 mm 2 m/s 730 mmHg 63%
    12:00 +5°C° 0 mm 2 m/s 730 mmHg 59%
    13:00 +5°C° 0 mm 2 m/s 729 mmHg 59%
    14:00 +5°C° 0 mm 2 m/s 729 mmHg 60%
    15:00 +5°C° 0 mm 2 m/s 728 mmHg 60%
    16:00 +3°C° 0 mm 2 m/s 728 mmHg 65%
    17:00 +2°C° 0 mm 1 m/s 728 mmHg 70%
    18:00 0°C° 0 mm 1 m/s 728 mmHg 75%
    19:00 0°C° 0 mm 1 m/s 728 mmHg 75%
    20:00 0°C° 0 mm 1 m/s 729 mmHg 76%
    21:00 -1°C° 0 mm 1 m/s 729 mmHg 77%
    22:00 -2°C° 0 mm 2 m/s 729 mmHg 76%
    23:00 -2°C° 0 mm 2 m/s 729 mmHg 75%

    22 Ianuarie, Duminică

    Timp Temperatura Precipitaţii Vânt Presiune Umiditate
    00:00 -2°C° 0 mm 2 m/s 729 mmHg 75%
    01:00 -2°C° 0 mm 3 m/s 728 mmHg 74%
    02:00 -2°C° 0 mm 3 m/s 728 mmHg 73%
    03:00 -4°C° 0 mm 4 m/s 728 mmHg 73%
    04:00 -4°C° 0 mm 4 m/s 728 mmHg 72%
    05:00 -4°C° 0 mm 4 m/s 728 mmHg 71%
    06:00 -4°C° 0 mm 4 m/s 728 mmHg 70%
    07:00 -3°C° 0 mm 4 m/s 728 mmHg 67%
    08:00 -2°C° 0 mm 4 m/s 728 mmHg 64%
    09:00 -1°C° 0 mm 4 m/s 728 mmHg 61%
    10:00 0°C° 0 mm 5 m/s 728 mmHg 58%
    11:00 +1°C° 0 mm 5 m/s 728 mmHg 54%
    12:00 +3°C° 0 mm 5 m/s 727 mmHg 51%
    13:00 +3°C° 0 mm 5 m/s 727 mmHg 51%
    14:00 +3°C° 0 mm 5 m/s 727 mmHg 51%
    15:00 +4°C° 0 mm 4 m/s 727 mmHg 51%
    16:00 +2°C° 0 mm 3 m/s 727 mmHg 55%
    17:00 +2°C° 0 mm 2 m/s 728 mmHg 60%
    18:00 +1°C° 0 mm 1 m/s 728 mmHg 65%
    19:00 +1°C° 0 mm 1 m/s 729 mmHg 65%
    20:00 +1°C° 0 mm 1 m/s 729 mmHg 65%
    21:00 0°C° 0 mm 1 m/s 730 mmHg 65%
    22:00 -2°C° 0 mm 2 m/s 730 mmHg 67%
    23:00 -2°C° 0 mm 2 m/s 731 mmHg 70%

    23 Ianuarie, Luni

    Timp Temperatura Precipitaţii Vânt Presiune Umiditate
    00:00 -2°C° 0 mm 3 m/s 731 mmHg 72%
    01:00 -2°C° 0,3 mm 2 m/s 731 mmHg 77%
    02:00 -3°C° 0,3 mm 2 m/s 732 mmHg 82%
    03:00 -3°C° 0,3 mm 2 m/s 732 mmHg 87%
    04:00 -3°C° 0,2 mm 2 m/s 733 mmHg 84%
    05:00 -4°C° 0,2 mm 3 m/s 734 mmHg 82%
    06:00 -5°C° 0,2 mm 3 m/s 735 mmHg 79%
    07:00 -4°C° 0 mm 4 m/s 736 mmHg 75%
    08:00 -4°C° 0 mm 4 m/s 737 mmHg 72%
    09:00 -4°C° 0 mm 4 m/s 738 mmHg 68%
    10:00 -3°C° 0 mm 4 m/s 738 mmHg 64%
    11:00 -2°C° 0 mm 4 m/s 738 mmHg 59%
    12:00 -1°C° 0 mm 4 m/s 738 mmHg 55%
    13:00 -1°C° 0 mm 4 m/s 738 mmHg 55%
    14:00 0°C° 0 mm 3 m/s 738 mmHg 54%
    15:00 +1°C° 0 mm 2 m/s 738 mmHg 54%
    16:00 -2°C° 0 mm 2 m/s 738 mmHg 61%
    17:00 -4°C° 0 mm 2 m/s 739 mmHg 69%
    18:00 -6°C° 0 mm 2 m/s 739 mmHg 77%
    19:00 -6°C° 0 mm 2 m/s 739 mmHg 80%
    20:00 -6°C° 0 mm 2 m/s 740 mmHg 83%
    21:00 -7°C° 0 mm 2 m/s 740 mmHg 86%
    22:00 -7°C° 0 mm 2 m/s 740 mmHg 87%
    23:00 -7°C° 0 mm 2 m/s 740 mmHg 88%
    Arată mai mult